Time,TemperatureF,DewpointF,PressureIn,WindDirection,WindDirectionDegrees,WindSpeedMPH,WindSpeedGustMPH,Humidity,HourlyPrecipIn,Conditions,Clouds,dailyrainin,SoftwareType,DateUTC
2013-11-26 00:01:00,41.7,41.2,29.66,NNE,22,7.3,-999.0,98,-99.99,,,0.00,Acu-Link.com,2013-11-26 06:01:00,
2013-11-26 00:16:00,41.9,41.4,29.67,North,0,7.8,-999.0,98,-99.99,,,0.05,Acu-Link.com,2013-11-26 06:16:00,
2013-11-26 00:31:00,41.7,41.2,29.66,East,90,7.3,-999.0,98,-99.99,,,0.09,Acu-Link.com,2013-11-26 06:31:00,
2013-11-26 00:46:00,41.7,41.2,29.66,North,0,5.8,-999.0,98,-99.99,,,0.13,Acu-Link.com,2013-11-26 06:46:00,
2013-11-26 01:01:00,41.7,41.2,29.61,NNE,22,6.3,-999.0,98,-99.99,,,0.17,Acu-Link.com,2013-11-26 07:01:00,
2013-11-26 01:17:00,41.5,41.0,29.61,NW,315,9.4,-999.0,98,-99.99,,,0.25,Acu-Link.com,2013-11-26 07:17:00,
2013-11-26 01:32:00,41.5,-52.2,29.59,North,0,7.3,-999.0,1,-99.99,,,0.27,Acu-Link.com,2013-11-26 07:32:00,
2013-11-26 01:47:00,41.7,-52.1,29.58,NNE,22,10.9,-999.0,1,-99.99,,,0.28,Acu-Link.com,2013-11-26 07:47:00,
2013-11-26 02:02:00,41.9,39.7,29.60,NNE,22,5.8,-999.0,92,-99.99,,,0.31,Acu-Link.com,2013-11-26 08:02:00,
2013-11-26 02:17:00,41.9,8.7,29.61,NNW,337,5.8,-999.0,25,-99.99,,,0.33,Acu-Link.com,2013-11-26 08:17:00,
2013-11-26 02:32:00,42.1,-51.8,29.58,WNW,292,3.7,-999.0,1,-99.99,,,0.37,Acu-Link.com,2013-11-26 08:32:00,
2013-11-26 02:47:00,41.9,40.6,29.57,NNW,337,9.4,-999.0,95,-99.99,,,0.39,Acu-Link.com,2013-11-26 08:47:00,
2013-11-26 03:02:00,41.7,41.2,29.57,NE,45,5.8,-999.0,98,-99.99,,,0.39,Acu-Link.com,2013-11-26 09:02:00,
2013-11-26 03:18:00,41.9,41.4,29.58,North,0,9.4,-999.0,98,-99.99,,,0.40,Acu-Link.com,2013-11-26 09:18:00,
2013-11-26 03:33:00,41.9,41.4,29.59,NW,315,6.8,-999.0,98,-99.99,,,0.40,Acu-Link.com,2013-11-26 09:33:00,
2013-11-26 03:48:00,41.9,28.6,29.59,NNW,337,8.9,-999.0,59,-99.99,,,0.40,Acu-Link.com,2013-11-26 09:48:00,
2013-11-26 04:03:00,41.7,-28.3,29.59,WNW,292,7.3,-999.0,4,-99.99,,,0.40,Acu-Link.com,2013-11-26 10:03:00,
2013-11-26 04:18:00,41.5,-52.2,29.60,NNE,22,5.3,-999.0,1,-99.99,,,0.40,Acu-Link.com,2013-11-26 10:18:00,
2013-11-26 04:34:00,41.7,-52.1,29.62,NW,315,6.8,-999.0,1,-99.99,,,0.40,Acu-Link.com,2013-11-26 10:34:00,
2013-11-26 04:49:00,41.7,-52.1,29.62,WNW,292,10.4,-999.0,1,-99.99,,,0.40,Acu-Link.com,2013-11-26 10:49:00,
2013-11-26 05:04:00,41.4,-52.2,29.60,NNW,337,10.9,-999.0,1,-99.99,,,0.40,Acu-Link.com,2013-11-26 11:04:00,
2013-11-26 05:20:00,41.4,-52.2,29.61,SW,225,10.9,-999.0,1,-99.99,,,0.40,Acu-Link.com,2013-11-26 11:20:00,
2013-11-26 05:35:00,41.4,-52.2,29.63,West,270,14.0,-999.0,1,-99.99,,,0.40,Acu-Link.com,2013-11-26 11:35:00,
2013-11-26 05:50:00,41.4,-52.2,29.63,WSW,247,8.9,-999.0,1,-99.99,,,0.40,Acu-Link.com,2013-11-26 11:50:00,
2013-11-26 06:05:00,40.6,23.4,29.71,WSW,247,6.3,-999.0,50,-99.99,,,0.41,Acu-Link.com,2013-11-26 12:05:00,
2013-11-26 06:20:00,40.3,39.8,29.69,WNW,292,9.4,-999.0,98,-99.99,,,0.41,Acu-Link.com,2013-11-26 12:20:00,
2013-11-26 06:35:00,39.9,39.4,29.70,NW,315,9.9,-999.0,98,-99.99,,,0.41,Acu-Link.com,2013-11-26 12:35:00,
2013-11-26 06:50:00,39.9,-53.2,29.69,North,0,6.3,-999.0,1,-99.99,,,0.41,Acu-Link.com,2013-11-26 12:50:00,
2013-11-26 07:05:00,39.9,-53.2,29.67,NNW,337,10.4,-999.0,1,-99.99,,,0.43,Acu-Link.com,2013-11-26 13:05:00,
2013-11-26 07:20:00,39.9,-53.2,29.68,NNE,22,9.4,-999.0,1,-99.99,,,0.43,Acu-Link.com,2013-11-26 13:20:00,
2013-11-26 07:36:00,40.1,-53.0,29.70,NE,45,6.8,-999.0,1,-99.99,,,0.44,Acu-Link.com,2013-11-26 13:36:00,
2013-11-26 07:51:00,40.5,-52.8,29.71,West,270,10.9,-999.0,1,-99.99,,,0.45,Acu-Link.com,2013-11-26 13:51:00,
2013-11-26 08:06:00,40.5,-52.8,29.72,North,0,6.3,-999.0,1,-99.99,,,0.47,Acu-Link.com,2013-11-26 14:06:00,
2013-11-26 08:21:00,40.6,-52.7,29.73,North,0,12.5,-999.0,1,-99.99,,,0.48,Acu-Link.com,2013-11-26 14:21:00,
2013-11-26 08:36:00,41.4,-52.2,29.72,NW,315,8.9,-999.0,1,-99.99,,,0.50,Acu-Link.com,2013-11-26 14:36:00,
2013-11-26 08:51:00,40.8,-52.6,29.72,NNW,337,7.3,-999.0,1,-99.99,,,0.50,Acu-Link.com,2013-11-26 14:51:00,
2013-11-26 09:06:00,41.2,-52.4,29.69,WNW,292,7.3,-999.0,1,-99.99,,,0.50,Acu-Link.com,2013-11-26 15:06:00,
2013-11-26 09:22:00,41.7,-52.1,29.68,North,0,8.3,-999.0,1,-99.99,,,0.50,Acu-Link.com,2013-11-26 15:22:00,
2013-11-26 09:37:00,41.9,-51.9,29.67,WSW,247,10.9,-999.0,1,-99.99,,,0.50,Acu-Link.com,2013-11-26 15:37:00,
2013-11-26 09:52:00,42.1,-51.8,29.65,North,0,10.4,-999.0,1,-99.99,,,0.50,Acu-Link.com,2013-11-26 15:52:00,
2013-11-26 10:07:00,42.1,-51.8,29.66,WNW,292,6.8,-999.0,1,-99.99,,,0.50,Acu-Link.com,2013-11-26 16:07:00,
2013-11-26 10:22:00,42.1,-51.8,29.65,North,0,7.8,-999.0,1,-99.99,,,0.50,Acu-Link.com,2013-11-26 16:22:00,
2013-11-26 10:37:00,42.3,-51.7,29.62,North,0,8.9,-999.0,1,-99.99,,,0.50,Acu-Link.com,2013-11-26 16:37:00,
2013-11-26 10:53:00,42.4,-51.6,29.63,NNW,337,8.9,-999.0,1,-99.99,,,0.50,Acu-Link.com,2013-11-26 16:53:00,
2013-11-26 11:08:00,42.6,-51.5,29.65,North,0,5.3,-999.0,1,-99.99,,,0.50,Acu-Link.com,2013-11-26 17:08:00,
2013-11-26 11:23:00,42.3,-51.7,29.64,NNW,337,7.8,-999.0,1,-99.99,,,0.50,Acu-Link.com,2013-11-26 17:23:00,
2013-11-26 11:38:00,42.6,-51.5,29.64,NW,315,6.3,-999.0,1,-99.99,,,0.50,Acu-Link.com,2013-11-26 17:38:00,
2013-11-26 11:54:00,43.0,-51.2,29.65,NNW,337,6.8,-999.0,1,-99.99,,,0.50,Acu-Link.com,2013-11-26 17:54:00,
2013-11-26 12:09:00,42.6,-51.5,29.65,WNW,292,8.3,-999.0,1,-99.99,,,0.50,Acu-Link.com,2013-11-26 18:09:00,
2013-11-26 12:24:00,42.4,-51.6,29.65,West,270,5.8,-999.0,1,-99.99,,,0.50,Acu-Link.com,2013-11-26 18:24:00,
2013-11-26 12:39:00,42.4,-51.6,29.64,NNE,22,5.8,-999.0,1,-99.99,,,0.50,Acu-Link.com,2013-11-26 18:39:00,
2013-11-26 12:54:00,42.6,-51.5,29.63,NNW,337,5.3,-999.0,1,-99.99,,,0.50,Acu-Link.com,2013-11-26 18:54:00,
2013-11-26 13:10:00,42.4,-51.6,29.61,SW,225,9.9,-999.0,1,-99.99,,,0.50,Acu-Link.com,2013-11-26 19:10:00,
2013-11-26 13:25:00,42.6,-51.5,29.63,WNW,292,9.4,-999.0,1,-99.99,,,0.50,Acu-Link.com,2013-11-26 19:25:00,
2013-11-26 13:40:00,42.4,-51.6,29.63,WNW,292,11.9,-999.0,1,-99.99,,,0.50,Acu-Link.com,2013-11-26 19:40:00,
2013-11-26 13:55:00,42.1,-51.8,29.64,North,0,9.4,-999.0,1,-99.99,,,0.50,Acu-Link.com,2013-11-26 19:55:00,
2013-11-26 14:10:00,42.3,-51.7,29.65,WNW,292,7.8,-999.0,1,-99.99,,,0.50,Acu-Link.com,2013-11-26 20:10:00,
2013-11-26 14:25:00,41.2,-52.4,29.65,NW,315,13.5,-999.0,1,-99.99,,,0.50,Acu-Link.com,2013-11-26 20:25:00,
2013-11-26 14:40:00,42.3,-51.7,29.65,WNW,292,8.9,-999.0,1,-99.99,,,0.50,Acu-Link.com,2013-11-26 20:40:00,
2013-11-26 14:55:00,41.9,-51.9,29.66,West,270,1.7,-999.0,1,-99.99,,,0.50,Acu-Link.com,2013-11-26 20:55:00,
2013-11-26 15:11:00,41.9,-51.9,29.65,NE,45,7.3,-999.0,1,-99.99,,,0.50,Acu-Link.com,2013-11-26 21:11:00,
2013-11-26 15:26:00,41.5,-52.2,29.66,NW,315,6.8,-999.0,1,-99.99,,,0.50,Acu-Link.com,2013-11-26 21:26:00,
2013-11-26 15:41:00,41.4,-52.2,29.66,North,0,6.8,-999.0,1,-99.99,,,0.50,Acu-Link.com,2013-11-26 21:41:00,
2013-11-26 15:56:00,41.4,-52.2,29.67,WSW,247,6.8,-999.0,1,-99.99,,,0.50,Acu-Link.com,2013-11-26 21:56:00,
2013-11-26 16:11:00,41.4,-52.2,29.67,NE,45,6.3,-999.0,1,-99.99,,,0.50,Acu-Link.com,2013-11-26 22:11:00,
2013-11-26 16:26:00,41.2,-52.4,29.68,North,0,6.3,-999.0,1,-99.99,,,0.50,Acu-Link.com,2013-11-26 22:26:00,
2013-11-26 16:41:00,41.5,-52.2,29.69,West,270,4.7,-999.0,1,-99.99,,,0.50,Acu-Link.com,2013-11-26 22:41:00,
2013-11-26 16:56:00,41.2,-52.4,29.69,NW,315,8.3,-999.0,1,-99.99,,,0.50,Acu-Link.com,2013-11-26 22:56:00,
2013-11-26 17:12:00,41.2,-52.4,29.70,NNE,22,5.8,-999.0,1,-99.99,,,0.50,Acu-Link.com,2013-11-26 23:12:00,
2013-11-26 17:27:00,41.0,-52.5,29.71,North,0,7.8,-999.0,1,-99.99,,,0.51,Acu-Link.com,2013-11-26 23:27:00,
2013-11-26 17:42:00,41.0,-52.5,29.72,NNW,337,13.0,-999.0,1,-99.99,,,0.51,Acu-Link.com,2013-11-26 23:42:00,
2013-11-26 17:57:00,40.8,-52.6,29.73,NW,315,13.5,-999.0,1,-99.99,,,0.52,Acu-Link.com,2013-11-26 23:57:00,
2013-11-26 18:12:00,40.8,-52.6,29.74,NNW,337,6.8,-999.0,1,-99.99,,,0.53,Acu-Link.com,2013-11-27 00:12:00,
2013-11-26 18:27:00,40.8,-52.6,29.74,NW,315,5.3,-999.0,1,-99.99,,,0.53,Acu-Link.com,2013-11-27 00:27:00,
2013-11-26 18:42:00,40.6,-52.7,29.76,NNE,22,6.3,-999.0,1,-99.99,,,0.53,Acu-Link.com,2013-11-27 00:42:00,
2013-11-26 18:58:00,40.6,-52.7,29.76,NW,315,7.3,-999.0,1,-99.99,,,0.53,Acu-Link.com,2013-11-27 00:58:00,
2013-11-26 19:13:00,40.6,-52.7,29.76,WNW,292,6.3,-999.0,1,-99.99,,,0.53,Acu-Link.com,2013-11-27 01:13:00,
2013-11-26 19:28:00,40.6,-52.7,29.78,NW,315,9.4,-999.0,1,-99.99,,,0.53,Acu-Link.com,2013-11-27 01:28:00,
2013-11-26 19:43:00,40.5,-52.8,29.79,North,0,6.3,-999.0,1,-99.99,,,0.53,Acu-Link.com,2013-11-27 01:43:00,
2013-11-26 19:58:00,40.5,-52.8,29.80,WSW,247,2.7,-999.0,1,-99.99,,,0.53,Acu-Link.com,2013-11-27 01:58:00,
2013-11-26 20:13:00,40.5,-52.8,29.80,West,270,8.9,-999.0,1,-99.99,,,0.53,Acu-Link.com,2013-11-27 02:13:00,
2013-11-26 20:28:00,40.6,-52.7,29.81,West,270,5.8,-999.0,1,-99.99,,,0.53,Acu-Link.com,2013-11-27 02:28:00,
2013-11-26 20:43:00,40.8,-52.6,29.82,WNW,292,7.8,-999.0,1,-99.99,,,0.53,Acu-Link.com,2013-11-27 02:43:00,
2013-11-26 20:59:00,41.0,-52.5,29.82,NW,315,9.9,-999.0,1,-99.99,,,0.53,Acu-Link.com,2013-11-27 02:59:00,
2013-11-26 21:14:00,41.2,-52.4,29.83,ESE,112,9.4,-999.0,1,-99.99,,,0.53,Acu-Link.com,2013-11-27 03:14:00,
2013-11-26 21:29:00,41.0,-52.5,29.84,NE,45,15.5,-999.0,1,-99.99,,,0.53,Acu-Link.com,2013-11-27 03:29:00,
2013-11-26 21:44:00,40.6,-52.7,29.84,West,270,10.4,-999.0,1,-99.99,,,0.54,Acu-Link.com,2013-11-27 03:44:00,
2013-11-26 21:59:00,40.5,-52.8,29.84,North,0,11.4,-999.0,1,-99.99,,,0.54,Acu-Link.com,2013-11-27 03:59:00,
2013-11-26 22:14:00,40.5,-52.8,29.85,NNW,337,6.8,-999.0,1,-99.99,,,0.54,Acu-Link.com,2013-11-27 04:14:00,
2013-11-26 22:30:00,40.8,-52.6,29.84,NNW,337,4.7,-999.0,1,-99.99,,,0.54,Acu-Link.com,2013-11-27 04:30:00,
2013-11-26 22:45:00,40.8,-52.6,29.85,NNW,337,5.8,-999.0,1,-99.99,,,0.54,Acu-Link.com,2013-11-27 04:45:00,
2013-11-26 23:00:00,41.0,-52.5,29.84,North,0,3.7,-999.0,1,-99.99,,,0.54,Acu-Link.com,2013-11-27 05:00:00,
2013-11-26 23:15:00,41.0,-52.5,29.85,NW,315,6.3,-999.0,1,-99.99,,,0.54,Acu-Link.com,2013-11-27 05:15:00,
2013-11-26 23:30:00,40.6,-52.7,29.85,NNE,22,4.7,-999.0,1,-99.99,,,0.54,Acu-Link.com,2013-11-27 05:30:00,
2013-11-26 23:45:00,40.5,-52.8,29.85,West,270,8.3,-999.0,1,-99.99,,,0.54,Acu-Link.com,2013-11-27 05:45:00,